Regional Weather Roundup
Issued by NWS

Home | Current Version | Previous Version | Text Only | Print | Product List | Glossary On
Versions: 1 2 3 4 5 6 7 8 9 10 11 12 13 14 15 16 17 18 19 20 21 22 23 24 25 26 27 28 29 30 31 32 33 34 35 36 37 38 39 40 41 42 43 44 45 46 47 48 49 50
000
ASHW40 PHFO 301610
RWRHI

WEATHER ROUNDUP FOR HAWAII
NATIONAL WEATHER SERVICE HONOLULU HI
600 AM HST FRI JAN 30 2015

THIS IS AN AUTOMATED REPORT THAT HAS NOT BEEN QUALITY CONTROLLED.

NOTE..."FAIR" INDICATES FEW OR NO CLOUDS BELOW 12,000 FEET WITH NO
SIGNIFICANT WEATHER AND/OR OBSTRUCTIONS TO VISIBILITY.

* - THESE SITES REPORT LIMITED FIELDS

HIZ001>004-301700-
KAUAI-NIIHAU-

CITY           SKY/WX    TMP DP  RH WIND       PRES   REMARKS
LIHUE APT      PTCLDY    64  58  80 W6        29.91R
PORT ALLEN*      N/A     63 N/A N/A NE6         N/A
POIPU*           N/A     61 N/A N/A VRB3        N/A
PRINCEVILLE*     N/A     63 N/A N/A MISG        N/A
KOKOLE POINT*  NOT AVBL
MOLOAA DAIRY*  NOT AVBL
WAIMEA HTS*    NOT AVBL
PUU OPAE*      NOT AVBL
PUU LUA*       NOT AVBL
MAKAHA RIDGE*  NOT AVBL
$$

HIZ005>011-301700-
OAHU-

CITY           SKY/WX    TMP DP  RH WIND       PRES   REMARKS
HONOLULU       PTCLDY    65  63  93 N5        29.90R
KALAELOA       PTCLDY    66  62  87 CALM      29.91S
KANEOHE MCB    CLEAR     71  61  71 VRB6      29.86S
WHEELER FIELD  FAIR      63  59  88 W5        29.91R
BELLOWS*       NOT AVBL
KAHUKU*        NOT AVBL
WHEELER*       NOT AVBL
WAIANAE HARBOR NOT AVBL
DILLINGHAM*      N/A     70  63  78 MISG        N/A
KAHUKU TRN*      N/A     66  63  88 W3          N/A
KAWAILOA*        N/A     64  63  94 W3          N/A
KII*             N/A     68  64  88 S3          N/A
MAKUA RANGE*     N/A     68  63  83 E6          N/A
OAHU FOREST NW NOT AVBL
SCHOFIELD BRK*   N/A     61  59  94 MISG        N/A
SCHOFIELD S*   NOT AVBL
WAIANAE VLY*   NOT AVBL
KUAOKALA*      NOT AVBL
HONOULIUULI*   NOT AVBL
MOKUOLOE IS*   NOT AVBL
PALEHUA*       NOT AVBL
WAIAWA PHB*    NOT AVBL
$$

HIZ012>013-301700-
MOLOKAI-

CITY           SKY/WX    TMP DP  RH WIND       PRES   REMARKS
MOLOKAI AIRPT  CLOUDY    69  67  93 CALM      29.92R
KALAUPAPA      NOT AVBL
MAKAPULAPAI*   NOT AVBL
MOLOKAI 1*     NOT AVBL
PUU ALII*      NOT AVBL
$$

HIZ016-301700-
KAHOOLAWE-

CITY           SKY/WX    TMP DP  RH WIND       PRES   REMARKS
KAHOOLAWE*     NOT AVBL
HAKIOAWA*      NOT AVBL
HONOKANAIA*      N/A     71  65  81 W2G9      29.93R
KANELOA*         N/A     70  66  88 MISG      29.13S
KEALIALALO*    NOT AVBL
LUA MAKIKA*    NOT AVBL
$$

HIZ014>015-301700-
LANAI-

CITY           SKY/WX    TMP DP  RH WIND       PRES   REMARKS
LANAI CITY     MOCLDY    68  63  83 N5        29.96S
LANAI 1*       NOT AVBL
$$

HIZ017>028-301700-
MAUI-

CITY           SKY/WX    TMP DP  RH WIND       PRES   REMARKS
KAHULUI        CLEAR     69  64  84 CALM      29.92R
KAPALUA-W MAUI MOCLDY    70  64  83 SE6       29.93
HANA AIRPORT   CLEAR     61  59  94 S3        29.94S
HANA*          NOT AVBL
HALEAKALA SUMM   N/A     37  30  75 SW16G30     N/A  WCI  28
MAALAEA BAY*   NOT AVBL
HALEAKALA*     NOT AVBL
KAUPO GAP*     NOT AVBL
KULA 1*          N/A    N/A N/A N/A S10         N/A
$$

HIZ023>026-301700-
BIG ISLAND OF HAWAII COAST AND LOWER SLOPES-

CITY           SKY/WX    TMP DP  RH WIND       PRES   REMARKS
KAILUA KONA    PTCLDY    72  65  78 CALM      29.91R
HILO           MOCLDY    66  56  70 SW9       29.93R
HONOKAA*       NOT AVBL
KAWAIHAE MWT*  NOT AVBL
KAWAIHAE*        N/A     73 N/A N/A NE3         N/A
SOUTH POINT*   NOT AVBL
UPOLU AIRPORT* NOT AVBL
KAMUELA*       NOT AVBL
HAKALAU*         N/A    N/A N/A N/A W3          N/A
KALOKO-HONOKO* NOT AVBL
PALI 2*          N/A     59  57  94 N3          N/A
KEALAKOMO*       N/A     75  61  60 N5          N/A
KAUPULEHU*     NOT AVBL
KAPAPALA*      NOT AVBL
LOWER KAHUKU*  NOT AVBL
PUHE CS*       NOT AVBL
PUHO CS*       NOT AVBL
PTA KEAMUKU*     N/A     55  54  94 CALM        N/A
WAIKOLOA*      NOT AVBL
$$

HIZ027>028-301700-
BIG ISLAND OF HAWAII INTERIOR AND SUMMMITS-

CITY           SKY/WX    TMP DP  RH WIND       PRES   REMARKS
BRADSHAW FIELD CLOUDY    47  22  36 NW3       30.24R
MK VISITOR CEN NOT AVBL
MAUNA KEA*       N/A     28  -4  24 NW26        N/A  WCI  13
MAUNA LOA*       N/A     39  -8  13 MISG        N/A
MAUNA LOA 1*   NOT AVBL
PTA KIPUKA*      N/A     48  43  81 S6          N/A
PTA RANGE 17*    N/A     45  41  87 E5          N/A
PTA WEST*        N/A     52  41  66 SE13G18     N/A
NENE CABIN*    NOT AVBL
AHUMOA*        NOT AVBL
PTA PORTABLE*  NOT AVBL
PUU MALI*      NOT AVBL
$$

HIC003-301700-
NORTHWEST ISLANDS-

CITY           SKY/WX    TMP DP  RH WIND       PRES   REMARKS
MIDWAY ISLAND  MOCLDY    55  43  62 CALM      30.09S
MIDWAY NOS*    NOT AVBL
FRENCH FRIGATE NOT AVBL
$$

PHZ110>124-180-301700-
BUOY REPORTS

STATION/POSITION TIME  TEMP    WIND        PRES    WAVE   SWELL
                       AIR SEA DIR/SP/G            HT/PER HT/DIR
                 (UTC) (F)     (DEG/KT/KT) (MB)    (FT/S) (FT/D)
BUOY 51001       NOT AVBL
BUOY 51101       1600   65 72  270/ 16/ 21 1012.4R  13/12  11/310
BUOY 51100       1600   73 75  320/ 17/ 23 1011.5
BUOY 51003       1500   74 78  350/ 14/ 16 1012.2F   6/12   7
BUOY 51004       1457   77 78   90/  8/ 10 1013.1R   5/14
BARBERS PT BUOY  NOT AVBL
WAIMEA BAY BUOY  1600      77                N/A     5/12   3/320
KAILUA BAY BUOY  1600      76                N/A     3/11   2/350
LANAI BUOY       1600      77                N/A     3/13   2/270
BARBERS PT 2     1600      77                N/A     4/13   3/310
PAUWELA MAUI     1600      76                N/A     5/12
HILO             1600      76                N/A     5/13   3/340
KANEOHE BAY BUOY 1600      75                N/A     3/12   2/350
HANALEI KAUAI    NOT AVBL
KAHULUI HARBOR   1600   69 76   CALM  /  1 1012.6R
HONOLULU HARBOR  1600   68 75   50/  1/  2 1012.2S
KILO NALU        NOT AVBL
HILO HARBOR      NOT AVBL
MOKUOLOE         1600      75              1012.3R
NAWILIWILI       1600      76                N/A
WHOTS BUOY       NOT AVBL
BUOY 51028       NOT AVBL
$$

......................KEY........................................
  SKY/WX - SKY CONDITIONS/PRESENT WEATHER
  TMP    - TEMPERATURE IN FAHRENHEIT
  DWPT   - DEWPOINT IN FAHRENHEIT
  RH     - RELATIVE HUMIDITY IN PERCENT
  WIND   - DIRECTION AND SPEED /MPH FOR ISLANDS...KTS FOR BUOYS/
  PRES   - MEAN SEA LEVEL PRESSURE IN INCHES OF HG
  VSB    - VISIBILITY IN MILES
  HX     - HEAT INDEX
  WCI    - WIND CHILL INDEX
  VRB    - VARIABLE WIND DIRECTION
  N/A    - NOT AVAILABLE


USA.gov is the U.S. government's official web portal to all federal, state and local government web resources and services.